AZU2176 SBKP-SBEG

Flight info

Callsign AZU2176
Flight time 3h 21m
Altitude 38000
Route VUPOG UM417 UMGUP DCT IRUMO
Aircraft A339/H-SADE1E2E3GHIJ3J5M1P2RWXY/LB2D1

Departure

Time 2026-04-15 21:29
Airport Viracopos International Airport (SBKP)

Arrival

Time 2026-04-16 00:50
Airport Eduardo Gomes International Airport (SBEG)
Time Latitude Longitude Altitude Speed Heading
2026-04-15 21:22 -23.00752 -47.15289 2154 ft 0 kts 304°
2026-04-15 21:24 -23.00711 -47.15349 2157 ft 17 kts 307°
2026-04-15 21:24 -23.00613 -47.15364 2159 ft 18 kts 30°
2026-04-15 21:24 -23.00478 -47.15256 2156 ft 30 kts 39°
2026-04-15 21:25 -23.00300 -47.15108 2154 ft 32 kts 38°
2026-04-15 21:25 -23.00186 -47.15009 2156 ft 8 kts 39°
2026-04-15 21:25 -23.00141 -47.14969 2157 ft 9 kts 39°
2026-04-15 21:25 -23.00089 -47.14924 2155 ft 10 kts 39°
2026-04-15 21:26 -23.00031 -47.14873 2154 ft 11 kts 42°
2026-04-15 21:26 -22.99963 -47.14794 2159 ft 18 kts 40°
2026-04-15 21:26 -22.99930 -47.14763 2155 ft 0 kts 44°
2026-04-15 21:27 -22.99907 -47.14736 2154 ft 16 kts 50°
2026-04-15 21:27 -22.99889 -47.14644 2160 ft 11 kts 96°
2026-04-15 21:28 -22.99907 -47.14614 2156 ft 0 kts 128°
2026-04-15 21:28 -22.99965 -47.14535 2153 ft 49 kts 128°
2026-04-15 21:28 -23.00374 -47.13970 2154 ft 132 kts 128°
2026-04-15 21:28 -23.01095 -47.12975 2196 ft 187 kts 129°
2026-04-15 21:29 -23.01922 -47.11842 2791 ft 195 kts 129°
2026-04-15 21:29 -23.02770 -47.10677 3635 ft 189 kts 127°
2026-04-15 21:29 -23.03555 -47.09520 4438 ft 193 kts 126°
2026-04-15 21:29 -23.04384 -47.08284 4882 ft 212 kts 126°
2026-04-15 21:30 -23.05247 -47.06864 5220 ft 233 kts 114°
2026-04-15 21:30 -23.05542 -47.05041 5523 ft 255 kts 86°
2026-04-15 21:30 -23.04994 -47.03108 5814 ft 275 kts 59°
2026-04-15 21:30 -23.03652 -47.01581 6244 ft 279 kts 33°
2026-04-15 21:31 -22.99872 -47.00981 7077 ft 285 kts 348°
2026-04-15 21:31 -22.97886 -47.01410 7482 ft 287 kts 351°
2026-04-15 21:32 -22.94582 -47.01593 8165 ft 290 kts
2026-04-15 21:32 -22.92420 -47.01371 8604 ft 292 kts
2026-04-15 21:32 -22.90405 -47.01049 9075 ft 293 kts
2026-04-15 21:32 -22.88614 -47.00732 9503 ft 295 kts
2026-04-15 21:33 -22.87157 -47.00472 9865 ft 297 kts
2026-04-15 21:33 -22.85147 -47.00213 10284 ft 301 kts
2026-04-15 21:33 -22.83023 -47.00398 10729 ft 309 kts 349°
2026-04-15 21:33 -22.80904 -47.00981 11190 ft 316 kts 345°
2026-04-15 21:34 -22.78945 -47.01533 11605 ft 322 kts 346°
2026-04-15 21:34 -22.76563 -47.02165 12104 ft 329 kts 347°
2026-04-15 21:34 -22.74212 -47.02770 12521 ft 338 kts 347°
2026-04-15 21:34 -22.72885 -47.03110 12727 ft 343 kts 347°
2026-04-15 21:35 -22.70509 -47.03724 13121 ft 351 kts 347°
2026-04-15 21:35 -22.68033 -47.04361 13515 ft 359 kts 347°
2026-04-15 21:35 -22.65534 -47.05008 13914 ft 366 kts 347°
2026-04-15 21:35 -22.63048 -47.05650 14243 ft 369 kts 347°
2026-04-15 21:36 -22.61443 -47.06065 14461 ft 370 kts 347°
2026-04-15 21:36 -22.58889 -47.06725 14836 ft 372 kts 347°
2026-04-15 21:36 -22.56354 -47.07493 15211 ft 374 kts 340°
2026-04-15 21:36 -22.53954 -47.08681 15598 ft 376 kts 331°
2026-04-15 21:37 -22.51772 -47.10249 15970 ft 378 kts 323°
2026-04-15 21:37 -22.49629 -47.11967 16360 ft 380 kts 323°
2026-04-15 21:37 -22.47454 -47.13685 16759 ft 381 kts 324°
2026-04-15 21:37 -22.45302 -47.15370 17162 ft 382 kts 324°
2026-04-15 21:38 -22.43358 -47.16886 17514 ft 384 kts 324°
2026-04-15 21:38 -22.41249 -47.18528 17919 ft 385 kts 324°
2026-04-15 21:38 -22.40306 -47.19261 18086 ft 386 kts 324°
2026-04-15 21:38 -22.38795 -47.20436 18365 ft 387 kts 324°
2026-04-15 21:39 -22.36887 -47.21920 18667 ft 389 kts 324°
2026-04-15 21:39 -22.34646 -47.23662 19032 ft 392 kts 324°
2026-04-15 21:39 -22.32395 -47.25410 19398 ft 394 kts 324°
2026-04-15 21:39 -22.30166 -47.27144 19769 ft 396 kts 323°
2026-04-15 21:40 -22.27990 -47.28993 20143 ft 398 kts 319°
2026-04-15 21:40 -22.25955 -47.30987 20524 ft 400 kts 316°
2026-04-15 21:40 -22.23906 -47.33099 20898 ft 402 kts 316°
2026-04-15 21:40 -22.21840 -47.35216 21296 ft 404 kts 316°
2026-04-15 21:41 -22.19801 -47.37296 21688 ft 406 kts 316°
2026-04-15 21:41 -22.17652 -47.39485 22105 ft 408 kts 316°
2026-04-15 21:41 -22.15531 -47.41642 22516 ft 410 kts 316°
2026-04-15 21:41 -22.13365 -47.43842 22941 ft 412 kts 316°
2026-04-15 21:42 -22.11244 -47.45997 23359 ft 414 kts 316°
2026-04-15 21:42 -22.09767 -47.47496 23649 ft 415 kts 316°
2026-04-15 21:42 -22.07638 -47.49658 23986 ft 417 kts 316°
2026-04-15 21:42 -22.05520 -47.51805 24341 ft 418 kts 315°
2026-04-15 21:43 -22.03368 -47.53987 24702 ft 420 kts 315°
2026-04-15 21:43 -22.01229 -47.56154 25046 ft 421 kts 315°
2026-04-15 21:43 -21.99039 -47.58373 25429 ft 422 kts 315°
2026-04-15 21:43 -21.96860 -47.60579 25809 ft 424 kts 315°
2026-04-15 21:44 -21.94682 -47.62783 26172 ft 425 kts 315°
2026-04-15 21:44 -21.92494 -47.64997 26557 ft 426 kts 315°
2026-04-15 21:44 -21.90308 -47.67207 26938 ft 427 kts 314°
2026-04-15 21:44 -21.88129 -47.69410 27321 ft 428 kts 314°
2026-04-15 21:45 -21.85955 -47.71605 27712 ft 429 kts 314°
2026-04-15 21:45 -21.83748 -47.73834 28119 ft 429 kts 314°
2026-04-15 21:45 -21.81511 -47.76093 28538 ft 430 kts 314°
2026-04-15 21:45 -21.79274 -47.78351 28958 ft 430 kts 314°
2026-04-15 21:46 -21.77207 -47.80435 29296 ft 432 kts 314°
2026-04-15 21:46 -21.75035 -47.82620 29678 ft 433 kts 314°
2026-04-15 21:46 -21.72815 -47.84852 30029 ft 435 kts 313°
2026-04-15 21:46 -21.70624 -47.87059 30320 ft 438 kts 313°
2026-04-15 21:47 -21.69034 -47.88662 30501 ft 440 kts 313°
2026-04-15 21:47 -21.66651 -47.91065 30804 ft 443 kts 314°
2026-04-15 21:47 -21.64302 -47.93432 31103 ft 446 kts 314°
2026-04-15 21:47 -21.61926 -47.95825 31394 ft 449 kts 314°
2026-04-15 21:48 -21.59615 -47.98150 31690 ft 452 kts 314°
2026-04-15 21:48 -21.57273 -48.00504 31981 ft 455 kts 314°
2026-04-15 21:48 -21.54864 -48.02925 32294 ft 457 kts 314°
2026-04-15 21:48 -21.52530 -48.05269 32581 ft 459 kts 314°
2026-04-15 21:49 -21.50143 -48.07666 32883 ft 461 kts 314°
2026-04-15 21:49 -21.47749 -48.10069 33192 ft 463 kts 314°
2026-04-15 21:49 -21.45335 -48.12489 33510 ft 464 kts 314°
2026-04-15 21:49 -21.43727 -48.14102 33723 ft 465 kts 314°
2026-04-15 21:50 -21.41167 -48.16668 34046 ft 467 kts 314°
2026-04-15 21:50 -21.38571 -48.19268 34338 ft 468 kts 314°
2026-04-15 21:50 -21.36144 -48.21701 34581 ft 470 kts 314°
2026-04-15 21:50 -21.33935 -48.23917 34789 ft 471 kts 314°
2026-04-15 21:51 -21.32255 -48.25600 34957 ft 472 kts 315°
2026-04-15 21:51 -21.29721 -48.28136 35189 ft 473 kts 315°
2026-04-15 21:51 -21.27223 -48.30633 35436 ft 474 kts 315°
2026-04-15 21:51 -21.24654 -48.33198 35690 ft 474 kts 315°
2026-04-15 21:52 -21.22007 -48.35839 35969 ft 475 kts 315°
2026-04-15 21:52 -21.19489 -48.38351 36193 ft 475 kts 316°
2026-04-15 21:52 -21.17862 -48.39974 36368 ft 475 kts 316°
2026-04-15 21:52 -21.15199 -48.42628 36641 ft 474 kts 316°
2026-04-15 21:53 -21.12712 -48.45106 36896 ft 474 kts 316°
2026-04-15 21:53 -21.10256 -48.47553 37152 ft 474 kts 316°
2026-04-15 21:53 -21.07839 -48.49958 37409 ft 473 kts 316°
2026-04-15 21:53 -21.05363 -48.52422 37668 ft 473 kts 317°
2026-04-15 21:54 -21.02803 -48.54967 37935 ft 473 kts 317°
2026-04-15 21:54 -20.98507 -48.59236 37976 ft 479 kts 317°
2026-04-15 21:55 -20.93542 -48.64165 37974 ft 479 kts 317°
2026-04-15 21:55 -20.88911 -48.68759 37970 ft 477 kts 317°
2026-04-15 21:56 -20.84752 -48.72881 37969 ft 477 kts 316°
2026-04-15 21:56 -20.79558 -48.78025 37965 ft 476 kts 316°
2026-04-15 21:57 -20.74529 -48.82931 37964 ft 476 kts 319°
2026-04-15 21:57 -20.69964 -48.86519 37958 ft 477 kts 324°
2026-04-15 21:58 -20.64415 -48.90650 37961 ft 477 kts 323°
2026-04-15 21:58 -20.58902 -48.94783 37962 ft 477 kts 323°
2026-04-15 21:59 -20.53210 -48.99043 37958 ft 477 kts 323°
2026-04-15 21:59 -20.48474 -49.02584 37960 ft 477 kts 323°
2026-04-15 22:00 -20.42905 -49.06745 37961 ft 477 kts 323°
2026-04-15 22:00 -20.38409 -49.10100 37959 ft 477 kts 323°
2026-04-15 22:01 -20.32813 -49.14275 37961 ft 477 kts 323°
2026-04-15 22:01 -20.27106 -49.18527 37957 ft 477 kts 323°
2026-04-15 22:02 -20.21670 -49.22573 37958 ft 477 kts 323°
2026-04-15 22:02 -20.16925 -49.26103 37957 ft 477 kts 322°
2026-04-15 22:03 -20.11373 -49.30230 37951 ft 477 kts 322°
2026-04-15 22:03 -20.05891 -49.34301 37952 ft 476 kts 322°
2026-04-15 22:04 -20.00554 -49.38262 37952 ft 476 kts 322°
2026-04-15 22:04 -19.94903 -49.42452 37952 ft 476 kts 322°
2026-04-15 22:05 -19.89248 -49.46641 37951 ft 476 kts 322°
2026-04-15 22:05 -19.84638 -49.50054 37949 ft 476 kts 322°
2026-04-15 22:06 -19.79061 -49.54178 37947 ft 476 kts 322°
2026-04-15 22:06 -19.73533 -49.58264 37949 ft 476 kts 322°
2026-04-15 22:07 -19.67887 -49.62432 37943 ft 476 kts 322°
2026-04-15 22:07 -19.62271 -49.66574 37939 ft 476 kts 322°
2026-04-15 22:08 -19.57560 -49.70047 37939 ft 476 kts 322°
2026-04-15 22:08 -19.51969 -49.74165 37939 ft 475 kts 322°
2026-04-15 22:09 -19.46357 -49.78294 37939 ft 475 kts 322°
2026-04-15 22:09 -19.40825 -49.82362 37937 ft 475 kts 322°
2026-04-15 22:10 -19.35132 -49.86545 37940 ft 475 kts 322°
2026-04-15 22:10 -19.30463 -49.90017 37939 ft 474 kts 321°
2026-04-15 22:11 -19.24957 -49.94182 37931 ft 474 kts 321°
2026-04-15 22:11 -19.19305 -49.98442 37932 ft 474 kts 321°
2026-04-15 22:12 -19.13789 -50.02587 37930 ft 474 kts 321°
2026-04-15 22:12 -19.09096 -50.06110 37924 ft 475 kts 321°
2026-04-15 22:13 -19.03510 -50.10300 37922 ft 475 kts 321°
2026-04-15 22:13 -18.98297 -50.14208 37924 ft 474 kts 321°
2026-04-15 22:14 -18.94293 -50.17205 37917 ft 475 kts 321°
2026-04-15 22:14 -18.91715 -50.19126 37904 ft 475 kts 321°
2026-04-15 22:15 -18.86177 -50.23050 37915 ft 476 kts 322°
2026-04-15 22:15 -18.80569 -50.27003 37915 ft 476 kts 322°
2026-04-15 22:16 -18.74812 -50.31089 37922 ft 476 kts 322°
2026-04-15 22:16 -18.69116 -50.35135 37921 ft 476 kts 321°
2026-04-15 22:17 -18.64424 -50.38465 37930 ft 476 kts 321°
2026-04-15 22:17 -18.58854 -50.42414 37925 ft 476 kts 321°
2026-04-15 22:18 -18.53175 -50.46436 37924 ft 476 kts 321°
2026-04-15 22:18 -18.47554 -50.50417 37933 ft 476 kts 321°
2026-04-15 22:19 -18.42609 -50.53991 37926 ft 475 kts 320°
2026-04-15 22:19 -18.37058 -50.58025 37939 ft 475 kts 320°
2026-04-15 22:20 -18.31518 -50.62035 37941 ft 475 kts 320°
2026-04-15 22:20 -18.25946 -50.66060 37939 ft 475 kts 320°
2026-04-15 22:21 -18.21025 -50.69611 37937 ft 475 kts 320°
2026-04-15 22:21 -18.15865 -50.73331 37910 ft 476 kts 320°
2026-04-15 22:22 -18.11685 -50.76344 37850 ft 476 kts 320°
2026-04-15 22:22 -18.09316 -50.78049 38028 ft 473 kts 320°
2026-04-15 22:22 -18.06463 -50.80104 37932 ft 474 kts 320°
2026-04-15 22:23 -18.01285 -50.83833 37945 ft 474 kts 320°
2026-04-15 22:23 -17.95319 -50.88126 37937 ft 474 kts 320°
2026-04-15 22:24 -17.89969 -50.91971 37939 ft 474 kts 320°
2026-04-15 22:24 -17.84413 -50.95962 37938 ft 475 kts 320°
2026-04-15 22:25 -17.78885 -50.99927 37940 ft 475 kts 320°
2026-04-15 22:25 -17.74092 -51.03362 37940 ft 475 kts 320°
2026-04-15 22:26 -17.68659 -51.07255 37941 ft 475 kts 320°
2026-04-15 22:26 -17.62926 -51.11359 37945 ft 475 kts 320°
2026-04-15 22:27 -17.57646 -51.15136 37942 ft 475 kts 320°
2026-04-15 22:27 -17.52015 -51.19161 37945 ft 475 kts 320°
2026-04-15 22:28 -17.46411 -51.23163 37946 ft 475 kts 320°
2026-04-15 22:28 -17.40721 -51.27224 37944 ft 475 kts 320°
2026-04-15 22:29 -17.36089 -51.30527 37942 ft 475 kts 320°
2026-04-15 22:29 -17.30519 -51.34505 37941 ft 475 kts 320°
2026-04-15 22:30 -17.24963 -51.38471 37934 ft 475 kts 321°
2026-04-15 22:30 -17.19241 -51.42551 37935 ft 475 kts 321°
2026-04-15 22:31 -17.13689 -51.46506 37929 ft 475 kts 321°
2026-04-15 22:31 -17.08069 -51.50508 37928 ft 475 kts 321°
2026-04-15 22:32 -17.03452 -51.53792 37923 ft 475 kts 321°
2026-04-15 22:32 -16.97790 -51.57818 37922 ft 475 kts 321°
2026-04-15 22:33 -16.92385 -51.61656 37919 ft 475 kts 321°
2026-04-15 22:33 -16.86771 -51.65638 37911 ft 475 kts 321°
2026-04-15 22:34 -16.81956 -51.69051 37912 ft 475 kts 321°
2026-04-15 22:34 -16.76276 -51.73072 37911 ft 475 kts 321°
2026-04-15 22:35 -16.70375 -51.77248 37906 ft 475 kts 321°
2026-04-15 22:35 -16.64813 -51.81181 37903 ft 475 kts 321°
2026-04-15 22:36 -16.59287 -51.85086 37902 ft 475 kts 321°
2026-04-15 22:36 -16.54603 -51.88393 37898 ft 475 kts 321°
2026-04-15 22:37 -16.48935 -51.92393 37895 ft 475 kts 321°
2026-04-15 22:37 -16.43195 -51.96441 37899 ft 475 kts 321°
2026-04-15 22:38 -16.37615 -52.00374 37895 ft 475 kts 321°
2026-04-15 22:38 -16.32020 -52.04314 37895 ft 475 kts 321°
2026-04-15 22:39 -16.27345 -52.07583 37889 ft 475 kts 322°
2026-04-15 22:39 -16.21636 -52.11417 37886 ft 476 kts 323°
2026-04-15 22:40 -16.15876 -52.15280 37880 ft 476 kts 323°
2026-04-15 22:40 -16.10138 -52.19145 37879 ft 476 kts 323°
2026-04-15 22:41 -16.02367 -52.24381 37880 ft 476 kts 323°
2026-04-15 22:41 -15.96778 -52.28143 37881 ft 476 kts 323°
2026-04-15 22:42 -15.91157 -52.31923 37882 ft 476 kts 323°
2026-04-15 22:42 -15.85545 -52.35695 37882 ft 476 kts 323°
2026-04-15 22:43 -15.80559 -52.39044 37881 ft 476 kts 323°
2026-04-15 22:43 -15.74799 -52.42911 37880 ft 476 kts 323°
2026-04-15 22:44 -15.68938 -52.46842 37886 ft 476 kts 323°
2026-04-15 22:44 -15.63612 -52.50412 37887 ft 476 kts 323°
2026-04-15 22:45 -15.57943 -52.54210 37890 ft 476 kts 323°
2026-04-15 22:45 -15.53289 -52.57327 37892 ft 476 kts 323°
2026-04-15 22:46 -15.47460 -52.61227 37908 ft 476 kts 323°
2026-04-15 22:46 -15.42560 -52.64503 37887 ft 476 kts 323°
2026-04-15 22:47 -15.37610 -52.67811 37881 ft 476 kts 324°
2026-04-15 22:47 -15.32268 -52.71380 37867 ft 477 kts 324°
2026-04-15 22:48 -15.27235 -52.74739 37868 ft 477 kts 324°
2026-04-15 22:48 -15.21299 -52.78699 37891 ft 477 kts 324°
2026-04-15 22:49 -15.16297 -52.82034 37899 ft 478 kts 324°
2026-04-15 22:49 -15.10893 -52.85634 37897 ft 478 kts 324°
2026-04-15 22:50 -15.05365 -52.89315 37887 ft 478 kts 324°
2026-04-15 22:50 -14.99594 -52.93155 37858 ft 479 kts 324°
2026-04-15 22:51 -14.93557 -52.97169 37892 ft 479 kts 324°
2026-04-15 22:51 -14.88865 -53.00288 37835 ft 480 kts 324°
2026-04-15 22:52 -14.85215 -53.02714 37889 ft 479 kts 324°
2026-04-15 22:52 -14.81384 -53.05259 37847 ft 479 kts 324°
2026-04-15 22:53 -14.79674 -53.06394 37946 ft 478 kts 324°
2026-04-15 22:53 -14.77518 -53.07826 37807 ft 480 kts 324°
2026-04-15 22:53 -14.77144 -53.08075 37850 ft 479 kts 324°
2026-04-15 22:54 -14.74820 -53.09616 37908 ft 479 kts 324°
2026-04-15 22:54 -14.69676 -53.12920 37886 ft 481 kts 328°
2026-04-15 22:55 -14.63276 -53.16634 37862 ft 481 kts 327°
2026-04-15 22:55 -14.58118 -53.19649 37861 ft 481 kts 327°
2026-04-15 22:56 -14.52504 -53.22929 37866 ft 481 kts 327°
2026-04-15 22:56 -14.47858 -53.25639 37865 ft 481 kts 327°
2026-04-15 22:57 -14.41891 -53.29119 37862 ft 481 kts 327°
2026-04-15 22:57 -14.36434 -53.32300 37879 ft 481 kts 327°
2026-04-15 22:58 -14.32119 -53.34813 37882 ft 480 kts 327°
2026-04-15 22:58 -14.26066 -53.38338 37883 ft 480 kts 327°
2026-04-15 22:59 -14.21064 -53.41249 37885 ft 480 kts 327°
2026-04-15 22:59 -14.14846 -53.44864 37871 ft 480 kts 327°
2026-04-15 23:00 -14.09999 -53.47682 37876 ft 480 kts 327°
2026-04-15 23:00 -14.05181 -53.50481 37867 ft 479 kts 327°
2026-04-15 23:01 -14.01350 -53.52705 37866 ft 479 kts 327°
2026-04-15 23:01 -13.95874 -53.55884 37878 ft 479 kts 327°
2026-04-15 23:02 -13.90162 -53.59197 37868 ft 479 kts 327°
2026-04-15 23:02 -13.85171 -53.62094 37861 ft 479 kts 327°
2026-04-15 23:03 -13.78951 -53.65701 37880 ft 479 kts 327°
2026-04-15 23:03 -13.73692 -53.68751 37876 ft 479 kts 328°
2026-04-15 23:04 -13.68355 -53.71842 37875 ft 479 kts 328°
2026-04-15 23:04 -13.64441 -53.74108 37870 ft 479 kts 328°
2026-04-15 23:05 -13.61266 -53.75948 37879 ft 479 kts 328°
2026-04-15 23:05 -13.57298 -53.78244 37874 ft 479 kts 328°
2026-04-15 23:06 -13.52231 -53.81174 37876 ft 479 kts 328°
2026-04-15 23:06 -13.48965 -53.83063 37886 ft 479 kts 328°
2026-04-15 23:07 -13.44426 -53.85686 37870 ft 479 kts 328°
2026-04-15 23:07 -13.39359 -53.88613 37876 ft 479 kts 328°
2026-04-15 23:08 -13.33988 -53.91713 37869 ft 479 kts 328°
2026-04-15 23:08 -13.28965 -53.94612 37866 ft 479 kts 328°
2026-04-15 23:09 -13.22737 -53.98204 37872 ft 479 kts 328°
2026-04-15 23:09 -13.16759 -54.01651 37858 ft 479 kts 328°
2026-04-15 23:10 -13.11000 -54.04969 37871 ft 479 kts 328°
2026-04-15 23:10 -13.05598 -54.08081 37866 ft 479 kts 328°
2026-04-15 23:11 -12.99559 -54.11556 37866 ft 479 kts 328°
2026-04-15 23:11 -12.94723 -54.14338 37862 ft 479 kts 328°
2026-04-15 23:12 -12.88645 -54.17830 37865 ft 479 kts 328°
2026-04-15 23:12 -12.83910 -54.20547 37861 ft 479 kts 328°
2026-04-15 23:13 -12.78040 -54.23915 37863 ft 480 kts 328°
2026-04-15 23:13 -12.72178 -54.27277 37864 ft 480 kts 328°
2026-04-15 23:14 -12.66275 -54.30661 37864 ft 480 kts 328°
2026-04-15 23:14 -12.60423 -54.34015 37861 ft 480 kts 328°
2026-04-15 23:15 -12.54626 -54.37335 37858 ft 480 kts 328°
2026-04-15 23:15 -12.48809 -54.40666 37854 ft 480 kts 328°
2026-04-15 23:16 -12.42890 -54.44053 37862 ft 481 kts 328°
2026-04-15 23:16 -12.37000 -54.47422 37859 ft 481 kts 328°
2026-04-15 23:17 -12.31074 -54.50810 37860 ft 482 kts 328°
2026-04-15 23:17 -12.25174 -54.54181 37840 ft 482 kts 328°
2026-04-15 23:18 -12.19292 -54.57544 37858 ft 482 kts 329°
2026-04-15 23:18 -12.13562 -54.60812 37860 ft 483 kts 329°
2026-04-15 23:19 -12.07517 -54.64260 37862 ft 483 kts 329°
2026-04-15 23:19 -12.02608 -54.67060 37867 ft 483 kts 329°
2026-04-15 23:20 -11.97789 -54.69807 37868 ft 483 kts 329°
2026-04-15 23:20 -11.91896 -54.73164 37871 ft 483 kts 329°
2026-04-15 23:21 -11.85983 -54.76532 37875 ft 483 kts 329°
2026-04-15 23:21 -11.80193 -54.79827 37872 ft 483 kts 329°
2026-04-15 23:22 -11.74175 -54.83251 37874 ft 483 kts 329°
2026-04-15 23:22 -11.68271 -54.86608 37874 ft 482 kts 329°
2026-04-15 23:23 -11.62361 -54.89967 37878 ft 482 kts 329°
2026-04-15 23:23 -11.56523 -54.93284 37878 ft 482 kts 329°
2026-04-15 23:24 -11.50558 -54.96671 37876 ft 482 kts 329°
2026-04-15 23:24 -11.44702 -54.99995 37881 ft 481 kts 329°
2026-04-15 23:25 -11.38831 -55.03325 37877 ft 481 kts 329°
2026-04-15 23:25 -11.32841 -55.06721 37882 ft 481 kts 329°
2026-04-15 23:26 -11.27012 -55.10026 37877 ft 480 kts 329°
2026-04-15 23:26 -11.21118 -55.13364 37879 ft 480 kts 329°
2026-04-15 23:27 -11.16216 -55.16140 37877 ft 480 kts 329°
2026-04-15 23:27 -11.09404 -55.19995 37882 ft 480 kts 329°
2026-04-15 23:28 -11.06408 -55.21691 37880 ft 480 kts 329°
2026-04-15 23:28 -11.00544 -55.25005 37876 ft 480 kts 329°
2026-04-15 23:29 -10.94704 -55.28305 37881 ft 479 kts 330°
2026-04-15 23:29 -10.88857 -55.31606 37883 ft 479 kts 330°
2026-04-15 23:30 -10.82989 -55.34919 37881 ft 479 kts 330°
2026-04-15 23:30 -10.77014 -55.38290 37876 ft 478 kts 330°
2026-04-15 23:31 -10.71250 -55.41541 37876 ft 478 kts 330°
2026-04-15 23:31 -10.65419 -55.44827 37873 ft 478 kts 330°
2026-04-15 23:32 -10.59623 -55.48093 37873 ft 478 kts 330°
2026-04-15 23:32 -10.53713 -55.51422 37876 ft 479 kts 330°
2026-04-15 23:33 -10.47888 -55.54701 37881 ft 479 kts 330°
2026-04-15 23:33 -10.42012 -55.58007 37878 ft 479 kts 330°
2026-04-15 23:34 -10.37322 -55.60646 37874 ft 479 kts 330°
2026-04-15 23:36 -10.16148 -55.72545 37889 ft 479 kts 330°
2026-04-15 23:36 -10.10312 -55.75822 37871 ft 480 kts 330°
2026-04-15 23:37 -10.04429 -55.79125 37862 ft 480 kts 330°
2026-04-15 23:37 -9.98589 -55.82402 37860 ft 480 kts 330°
2026-04-15 23:38 -9.92709 -55.85700 37888 ft 480 kts 330°
2026-04-15 23:38 -9.87891 -55.88400 37864 ft 480 kts 330°
2026-04-15 23:39 -9.82097 -55.91648 37869 ft 480 kts 330°
2026-04-15 23:39 -9.77394 -55.94283 37845 ft 481 kts 330°
2026-04-15 23:40 -9.71541 -55.97561 37860 ft 480 kts 330°
2026-04-15 23:40 -9.65710 -56.00805 37865 ft 480 kts 330°
2026-04-15 23:41 -9.59762 -56.04034 37894 ft 480 kts 331°
2026-04-15 23:41 -9.53892 -56.07224 37889 ft 479 kts 331°
2026-04-15 23:42 -9.48007 -56.10429 37864 ft 479 kts 331°
2026-04-15 23:42 -9.42054 -56.13672 37863 ft 479 kts 331°
2026-04-15 23:43 -9.36188 -56.16867 37883 ft 479 kts 331°
2026-04-15 23:43 -9.30166 -56.20146 37893 ft 479 kts 331°
2026-04-15 23:44 -9.24051 -56.23474 37864 ft 479 kts 331°
2026-04-15 23:44 -9.18922 -56.26264 37886 ft 479 kts 331°
2026-04-15 23:45 -9.13041 -56.29466 37861 ft 480 kts 331°
2026-04-15 23:45 -9.07177 -56.32655 37859 ft 480 kts 331°
2026-04-15 23:46 -9.01292 -56.35852 37884 ft 480 kts 331°
2026-04-15 23:46 -8.95363 -56.39073 37895 ft 480 kts 332°
2026-04-15 23:47 -8.89471 -56.42271 37890 ft 481 kts 332°
2026-04-15 23:47 -8.83530 -56.45496 37869 ft 481 kts 332°
2026-04-15 23:48 -8.77629 -56.48697 37864 ft 482 kts 332°
2026-04-15 23:48 -8.71685 -56.51920 37897 ft 481 kts 332°
2026-04-15 23:49 -8.65759 -56.55133 37907 ft 481 kts 332°
2026-04-15 23:49 -8.59838 -56.58340 37901 ft 481 kts 332°
2026-04-15 23:50 -8.53957 -56.61525 37880 ft 482 kts 332°
2026-04-15 23:50 -8.48090 -56.64702 37881 ft 482 kts 332°
2026-04-15 23:51 -8.39068 -56.69586 37907 ft 481 kts 332°
2026-04-15 23:51 -8.33122 -56.72802 37903 ft 481 kts 332°
2026-04-15 23:52 -8.27167 -56.76023 37879 ft 482 kts 332°
2026-04-15 23:52 -8.22256 -56.78679 37893 ft 482 kts 332°
2026-04-15 23:53 -8.15421 -56.82372 37899 ft 482 kts 332°
2026-04-15 23:53 -8.10464 -56.85050 37886 ft 482 kts 332°
2026-04-15 23:54 -8.04801 -56.88659 37902 ft 481 kts 322°
2026-04-15 23:54 -7.99498 -56.92865 37896 ft 481 kts 321°
2026-04-15 23:55 -7.94900 -56.96479 37915 ft 481 kts 322°
2026-04-15 23:55 -7.89377 -57.00811 37886 ft 482 kts 322°
2026-04-15 23:56 -7.84769 -57.04426 37883 ft 483 kts 322°
2026-04-15 23:56 -7.79803 -57.08320 37880 ft 483 kts 322°
2026-04-15 23:57 -7.73778 -57.13045 37881 ft 483 kts 322°
2026-04-15 23:57 -7.68877 -57.16886 37887 ft 483 kts 322°
2026-04-15 23:58 -7.63774 -57.20885 37883 ft 484 kts 322°
2026-04-15 23:58 -7.58277 -57.25190 37876 ft 484 kts 322°
2026-04-15 23:59 -7.53290 -57.29096 37884 ft 484 kts 322°
2026-04-15 23:59 -7.48038 -57.33207 37880 ft 484 kts 322°
2026-04-16 00:00 -7.42342 -57.37663 37874 ft 484 kts 322°
2026-04-16 00:00 -7.37414 -57.41518 37875 ft 484 kts 322°
2026-04-16 00:01 -7.31952 -57.45790 37877 ft 484 kts 322°
2026-04-16 00:01 -7.26604 -57.49971 37869 ft 485 kts 322°
2026-04-16 00:02 -7.21262 -57.54146 37868 ft 485 kts 322°
2026-04-16 00:02 -7.15889 -57.58344 37869 ft 485 kts 322°
2026-04-16 00:03 -7.10529 -57.62530 37868 ft 485 kts 322°
2026-04-16 00:03 -7.05152 -57.66728 37870 ft 485 kts 322°
2026-04-16 00:04 -6.99861 -57.70859 37871 ft 485 kts 322°
2026-04-16 00:04 -6.94489 -57.75051 37869 ft 486 kts 322°
2026-04-16 00:05 -6.89155 -57.79213 37867 ft 486 kts 322°
2026-04-16 00:05 -6.83772 -57.83411 37865 ft 486 kts 322°
2026-04-16 00:06 -6.78413 -57.87589 37865 ft 486 kts 322°
2026-04-16 00:06 -6.73038 -57.91780 37867 ft 486 kts 322°
2026-04-16 00:07 -6.68545 -57.95280 37869 ft 486 kts 322°
2026-04-16 00:07 -6.63175 -57.99464 37865 ft 486 kts 322°
2026-04-16 00:08 -6.57809 -58.03644 37863 ft 485 kts 322°
2026-04-16 00:08 -6.52492 -58.07783 37859 ft 485 kts 322°
2026-04-16 00:09 -6.47179 -58.11919 37861 ft 485 kts 322°
2026-04-16 00:09 -6.41769 -58.16129 37857 ft 484 kts 322°
2026-04-16 00:10 -6.36336 -58.20356 37857 ft 484 kts 322°
2026-04-16 00:10 -6.30999 -58.24507 37854 ft 484 kts 322°
2026-04-16 00:11 -6.25636 -58.28677 37855 ft 484 kts 322°
2026-04-16 00:11 -6.20264 -58.32853 37858 ft 484 kts 322°
2026-04-16 00:12 -6.14940 -58.36990 37856 ft 484 kts 322°
2026-04-16 00:12 -6.10287 -58.40605 37859 ft 484 kts 322°
2026-04-16 00:13 -6.04962 -58.44742 37858 ft 484 kts 322°
2026-04-16 00:13 -5.99624 -58.48887 37859 ft 484 kts 322°
2026-04-16 00:14 -5.94297 -58.53023 37857 ft 484 kts 322°
2026-04-16 00:14 -5.88939 -58.57181 37855 ft 484 kts 322°
2026-04-16 00:15 -5.83549 -58.61364 37854 ft 485 kts 322°
2026-04-16 00:15 -5.78138 -58.65562 37861 ft 485 kts 322°
2026-04-16 00:16 -5.72766 -58.69729 37858 ft 485 kts 322°
2026-04-16 00:16 -5.67399 -58.73891 37855 ft 485 kts 322°
2026-04-16 00:17 -5.62050 -58.78037 37860 ft 485 kts 322°
2026-04-16 00:17 -5.56637 -58.82232 37859 ft 484 kts 322°
2026-04-16 00:18 -5.51227 -58.86424 37857 ft 484 kts 322°
2026-04-16 00:18 -5.45900 -58.90551 37855 ft 484 kts 322°
2026-04-16 00:19 -5.40594 -58.94661 37854 ft 484 kts 322°
2026-04-16 00:19 -5.35823 -58.98355 37855 ft 484 kts 322°
2026-04-16 00:20 -5.30401 -59.02552 37852 ft 484 kts 322°
2026-04-16 00:20 -5.25110 -59.06647 37852 ft 484 kts 322°
2026-04-16 00:21 -5.19743 -59.10800 37850 ft 484 kts 322°
2026-04-16 00:21 -5.14403 -59.14931 37852 ft 484 kts 322°
2026-04-16 00:22 -5.09032 -59.19085 37852 ft 484 kts 322°
2026-04-16 00:22 -5.03754 -59.23167 37848 ft 484 kts 322°
2026-04-16 00:23 -4.99593 -59.26384 37850 ft 484 kts 322°
2026-04-16 00:23 -4.94128 -59.30608 37846 ft 484 kts 322°
2026-04-16 00:24 -4.88228 -59.35168 37845 ft 484 kts 322°
2026-04-16 00:24 -4.83668 -59.38692 37850 ft 484 kts 322°
2026-04-16 00:25 -4.78071 -59.43015 37848 ft 483 kts 322°
2026-04-16 00:25 -4.72353 -59.47432 37847 ft 483 kts 322°
2026-04-16 00:26 -4.67874 -59.50891 37845 ft 483 kts 322°
2026-04-16 00:26 -4.62194 -59.55276 37844 ft 483 kts 322°
2026-04-16 00:27 -4.56909 -59.59356 37843 ft 482 kts 322°
2026-04-16 00:27 -4.51509 -59.63523 37844 ft 482 kts 322°
2026-04-16 00:28 -4.46815 -59.67145 37841 ft 482 kts 322°
2026-04-16 00:28 -4.41329 -59.71377 37843 ft 482 kts 322°
2026-04-16 00:29 -4.35977 -59.75506 37842 ft 482 kts 322°
2026-04-16 00:29 -4.30526 -59.79709 37834 ft 481 kts 322°
2026-04-16 00:30 -4.28048 -59.81620 37534 ft 477 kts 322°
2026-04-16 00:30 -4.26252 -59.83004 36888 ft 478 kts 322°
2026-04-16 00:30 -4.23647 -59.85013 35622 ft 483 kts 322°
2026-04-16 00:30 -4.21690 -59.86522 34458 ft 491 kts 322°
2026-04-16 00:31 -4.18369 -59.89082 32164 ft 503 kts 322°
2026-04-16 00:31 -4.16428 -59.90579 30865 ft 507 kts 322°
2026-04-16 00:31 -4.13648 -59.92692 28889 ft 511 kts 326°
2026-04-16 00:31 -4.10315 -59.94528 27409 ft 503 kts 338°
2026-04-16 00:32 -4.07898 -59.95384 26675 ft 494 kts 345°
2026-04-16 00:32 -4.03581 -59.96095 25954 ft 475 kts 357°
2026-04-16 00:32 -4.00287 -59.96351 25730 ft 459 kts 356°
2026-04-16 00:32 -3.97700 -59.96598 25321 ft 453 kts 355°
2026-04-16 00:33 -3.94332 -59.96936 24670 ft 448 kts 355°
2026-04-16 00:33 -3.91733 -59.97194 24166 ft 445 kts 355°
2026-04-16 00:33 -3.88181 -59.97539 23498 ft 440 kts 355°
2026-04-16 00:33 -3.85149 -59.97827 22834 ft 436 kts 356°
2026-04-16 00:34 -3.82172 -59.98108 22161 ft 431 kts 356°
2026-04-16 00:34 -3.79128 -59.98395 21482 ft 426 kts 356°
2026-04-16 00:34 -3.76333 -59.98659 20858 ft 422 kts 356°
2026-04-16 00:34 -3.74045 -59.98874 20335 ft 419 kts 356°
2026-04-16 00:35 -3.70315 -59.99532 19473 ft 415 kts 346°
2026-04-16 00:35 -3.68627 -60.00056 19071 ft 413 kts 342°
2026-04-16 00:35 -3.65638 -60.01301 18096 ft 406 kts 337°
2026-04-16 00:35 -3.62899 -60.02506 17141 ft 400 kts 338°
2026-04-16 00:36 -3.60644 -60.03489 16252 ft 394 kts 338°
2026-04-16 00:36 -3.59823 -60.03846 15929 ft 392 kts 338°
2026-04-16 00:36 -3.55548 -60.05692 14261 ft 382 kts 338°
2026-04-16 00:36 -3.54130 -60.06303 13744 ft 379 kts 338°
2026-04-16 00:37 -3.50725 -60.07768 12309 ft 371 kts 338°
2026-04-16 00:37 -3.49017 -60.08505 11595 ft 367 kts 338°
2026-04-16 00:37 -3.46207 -60.09716 10450 ft 359 kts 338°
2026-04-16 00:37 -3.43735 -60.10781 9849 ft 341 kts 339°
2026-04-16 00:38 -3.42230 -60.11431 9675 ft 323 kts 339°
2026-04-16 00:38 -3.40057 -60.12370 9339 ft 299 kts 339°
2026-04-16 00:38 -3.38083 -60.13218 8611 ft 293 kts 339°
2026-04-16 00:38 -3.36662 -60.13827 8040 ft 290 kts 339°
2026-04-16 00:39 -3.34748 -60.14648 7329 ft 286 kts 339°
2026-04-16 00:39 -3.32538 -60.15596 6961 ft 287 kts 339°
2026-04-16 00:39 -3.31196 -60.16171 6876 ft 287 kts 339°
2026-04-16 00:39 -3.29333 -60.16972 6963 ft 286 kts 339°
2026-04-16 00:40 -3.27909 -60.17560 6972 ft 286 kts 341°
2026-04-16 00:40 -3.25712 -60.18390 6973 ft 286 kts 342°
2026-04-16 00:40 -3.24367 -60.18886 6972 ft 286 kts 342°
2026-04-16 00:40 -3.22524 -60.19567 6967 ft 285 kts 342°
2026-04-16 00:41 -3.20317 -60.20398 6532 ft 281 kts 341°
2026-04-16 00:41 -3.19214 -60.20819 6197 ft 279 kts 341°
2026-04-16 00:41 -3.17038 -60.21650 5302 ft 276 kts 341°
2026-04-16 00:41 -3.15189 -60.22356 4733 ft 263 kts 341°
2026-04-16 00:42 -3.13894 -60.22855 4569 ft 245 kts 341°
2026-04-16 00:42 -3.12691 -60.23410 4450 ft 232 kts 336°
2026-04-16 00:42 -3.11997 -60.23738 4383 ft 225 kts 338°
2026-04-16 00:42 -3.09842 -60.24571 4224 ft 205 kts 345°
2026-04-16 00:43 -3.08527 -60.24938 4134 ft 187 kts 349°
2026-04-16 00:43 -3.07400 -60.25174 4022 ft 173 kts 353°
2026-04-16 00:43 -3.06518 -60.25309 3935 ft 159 kts 355°
2026-04-16 00:43 -3.05380 -60.25419 3694 ft 153 kts 359°
2026-04-16 00:44 -3.04509 -60.25446 3490 ft 147 kts
2026-04-16 00:44 -3.03510 -60.24962 3078 ft 143 kts 52°
2026-04-16 00:44 -3.03255 -60.23952 2990 ft 143 kts 95°
2026-04-16 00:44 -3.03286 -60.23252 2933 ft 145 kts 92°
2026-04-16 00:45 -3.03409 -60.21868 2598 ft 139 kts 99°
2026-04-16 00:45 -3.03541 -60.21213 2432 ft 139 kts 102°
2026-04-16 00:45 -3.03702 -60.20387 2177 ft 136 kts 99°
2026-04-16 00:45 -3.03830 -60.19462 1928 ft 131 kts 95°
2026-04-16 00:46 -3.03885 -60.18476 1568 ft 132 kts 90°
2026-04-16 00:46 -3.03891 -60.17811 1394 ft 136 kts 89°
2026-04-16 00:46 -3.03876 -60.16825 1136 ft 136 kts 88°
2026-04-16 00:46 -3.03858 -60.15765 1087 ft 144 kts 88°
2026-04-16 00:47 -3.03849 -60.14809 1053 ft 142 kts 89°
2026-04-16 00:47 -3.03847 -60.13725 999 ft 139 kts 89°
2026-04-16 00:47 -3.03846 -60.13105 989 ft 144 kts 89°
2026-04-16 00:47 -3.03843 -60.12232 932 ft 138 kts 88°
2026-04-16 00:48 -3.03833 -60.11037 877 ft 144 kts 90°
2026-04-16 00:48 -3.03837 -60.10221 833 ft 137 kts 90°
2026-04-16 00:48 -3.03845 -60.09238 791 ft 138 kts 90°
2026-04-16 00:48 -3.03854 -60.08471 737 ft 141 kts 90°
2026-04-16 00:49 -3.03856 -60.07309 541 ft 136 kts 89°
2026-04-16 00:50 -3.03864 -60.03988 275 ft 16 kts 89°
2026-04-16 00:51 -3.03827 -60.03769 274 ft 0 kts 49°
2026-04-16 00:51 -3.03787 -60.03757 275 ft 7 kts 359°
2026-04-16 00:51 -3.03739 -60.03774 275 ft 34 kts 334°
2026-04-16 00:52 -3.03629 -60.04050 274 ft 46 kts 286°
2026-04-16 00:52 -3.03577 -60.04222 274 ft 39 kts 295°
2026-04-16 00:52 -3.03372 -60.04386 274 ft 15 kts 336°
2026-04-16 00:52 -3.03327 -60.04420 274 ft 15 kts 321°
2026-04-16 00:53 -3.03271 -60.04443 274 ft 0 kts 343°
2026-04-16 00:53 -3.03249 -60.04450 298 ft 0 kts 343°